Location: Newark
(52.3500°N, 175.9667°E)
Time: 06:47:40
(UTC+00:00)

S-56A Canister/Altair - Pass Details

Date: 25 April 2021
Orbit: 631 x 2501 km, 38.9° (Epoch: 12 May)

Event Time Altitude Azimuth Distance (km) Brightness Sun altitude
Rises 11:01:02 0° 239° (WSW) 4,999 11.6 -22.4°
Reaches altitude 10° 11:05:20 10° 229° (SW) 3,666 10.8 -22.6°
Enters shadow 11:08:46 20° 213° (SSW) 2,701 9.9 -22.8°
Maximum altitude 11:12:22 27° 177° (S) 2,077 - -23.0°
Drops below altitude 10° 11:17:33 10° 122° (ESE) 2,638 - -23.2°
Sets 11:20:07 0° 109° (ESE) 3,382 - -23.3°
